{"data":{"norad_id":59216,"intl_designator":"2024-046R","name":"STARLINK-31417","alt_names":[],"object_type":"PAYLOAD","status":"ACTIVE","operator":null,"country":"US","launch_date":"2024-03-11","launch_site_code":"AFWTR","launch_vehicle":null,"mission":null,"orbit_class":"UNKNOWN","rcs_meters":null,"size_class":null,"mass_kg":null,"dimensions":null,"purposes":["comms"],"wikipedia_slug":null,"has_3d_model":false,"image_url":null,"decayed_at":null,"tle_current":{"epoch":"2026-09-20T10:58:52.562784Z","epoch_age_seconds":162535,"freshness":"FRESH","line1":"1 59216U 24046R   26263.45755281  .00004306  00000+0  13850-3 0  9997","line2":"2 59216  53.1581 329.6564 0001122  77.2108 282.9020 15.34398723142751","mean_motion":15.34398723,"eccentricity":0.0001122,"inclination_deg":53.1581,"raan_deg":329.6564,"arg_perigee_deg":77.2108,"mean_anomaly_deg":282.902,"bstar":0.0001385,"rev_number":14275,"period_min":93.847836185927,"perigee_km":461.93949302205,"apogee_km":463.47457842366,"semimajor_km":6840.8440357229,"source":"CELESTRAK","updated_at":"2026-09-21T09:00:34.071600Z"}}}